sat.trackr.live / text

‹ back to catalog

STARLINK-5933

NORAD 55961 · 2023-037AZ

PAYLOAD ACTIVE UNKNOWN

§ Identity

Operator
Country
US
Launch date
2023-03-17
Launch site
AFWTR
Launch vehicle
Mass (kg)
RCS (m²)

Purposes: comms

External: N2YO · Heavens-Above · Gunter

§ Orbital elements

Epoch: 2026-09-20T21:13:22.942848Z

Period
96.11 min
Inclination
69.9986°
Eccentricity
0.0002806
Mean motion
14.98329211 rev/d
Perigee alt
570.1 km
Apogee alt
574.0 km
Semi-major
6,950.2 km
B*
3.3015e-6
RAAN
132.2152°
Arg perigee
270.8999°
Mean anomaly
89.1839°
Rev number
19,371

§ Raw data

STARLINK-59331 55961U 23037AZ  26263.88429332 -.00000054  00000+0  33015-5 0  99952 55961  69.9986 132.2152 0002806 270.8999  89.1839 14.98329211193710

JSON: /api/v1/satellites/55961 · /tle

For live sub-satellite position, see the globe view (requires WebGL).

§ Visibility from observer

Set your observer location to see the next 7 days of passes ≥ 10°. The values pass through the URL so the page stays shareable.

No JS? Fill the form by hand. The geolocation button needs JavaScript.